User: anonymous
Location: Unspecified
(0.0000°N, 0.0000°E)
Time: 00:07:42
(UTC+02:00)
Language:

Meteor 2-8 Rocket - Orbit

View from above orbital plane
View from above orbital plane
View from above satellite
View from above satellite

Ground track
Ground track

The orbit data is extracted from the following two-line orbital elements,

1 13114U 82025B   14113.38970053  .00000034  00000-0  17100-4 0  3682
2 13114 082.5433 038.4447 0015634 139.2318 000.1584 13.84623804621155
Epoch (UTC): 23 April 2014 09:21:10
Eccentricity: 0.0015634
inclination: 82.5433°
perigee height: 936 km
apogee height: 959 km
right ascension of ascending node: 38.4447°
argument of perigee: 139.2318°
revolutions per day: 13.84623804
mean anomaly at epoch: 0.1584°
orbit number at epoch: 62115

The dashed part of the orbit path shows where the satellite is in the earth's shadow,  

DLR